Le nostre stazioni meteo in Italia

Pubblicità
Il mio iltempo24.it
Gela, Italia (16453): Temperatura & dewpoint: 15.08.2019 14:00:00 - 21.08.2019 14:00:00 (CEST)Gela, Italia (16453): velocità del vento: 15.08.2019 14:00:00 - 21.08.2019 14:00:00 (CEST)Gela, Italia (16453): direzione del vento: 15.08.2019 14:00:00 - 21.08.2019 14:00:00 (CEST)Gela, Italia (16453): reduced air pressure: 15.08.2019 14:00:00 - 21.08.2019 14:00:00 (CEST)Gela, Italia (16453): visibility: 15.08.2019 14:00:00 - 21.08.2019 14:00:00 (CEST)Gela, Italia (16453): ore di luce: 15.08.2019 14:00:00 - 21.08.2019 14:00:00 (CEST)
Data & Tempo tt [°C] td [°C] ff [km/h] ff [kn] dd ppp [hPa] vv [km] sd [min]
21.08.2019 14:00:00 26,8 19,4 13 7 SO 1016,8 10 60
21.08.2019 13:00:00 27,0 20,0 13 7 - - 10 -
21.08.2019 12:00:00 27,0 21,0 13 7 SO - 10 -
21.08.2019 11:00:00 26,8 20,9 11 6 OSO 1017,4 10 60
21.08.2019 10:00:00 26,0 20,0 8 4 - - 10 -
21.08.2019 09:00:00 25,0 20,0 4 2 - - 10 -
21.08.2019 08:00:00 24,6 19,4 5 3 N 1017,4 10 36
21.08.2019 07:00:00 - - - - - - - -
21.08.2019 06:00:00 - - - - - - - -
21.08.2019 05:00:00 - - - - - - - -
21.08.2019 04:00:00 - - - - - - - -
21.08.2019 03:00:00 - - - - - - - -
21.08.2019 02:00:00 - - - - - - - -
21.08.2019 01:00:00 - - - - - - - -
21.08.2019 00:00:00 - - - - - - - -
20.08.2019 23:00:00 - - - - - - - -
20.08.2019 22:00:00 - - - - - - - -
20.08.2019 21:00:00 - - - - - - - -
20.08.2019 20:00:00 25,8 19,9 8 4 SSO 1016,8 10 0
20.08.2019 19:00:00 27,0 20,0 8 4 SO - 10 -
20.08.2019 18:00:00 27,0 20,0 9 5 SO - 10 -
20.08.2019 17:00:00 27,0 20,1 9 5 N 1016,8 10 60
20.08.2019 16:00:00 27,0 20,0 13 7 - - 10 -
20.08.2019 15:00:00 27,0 21,0 16 9 SO - 10 -
20.08.2019 14:00:00 26,8 20,9 16 9 SO 1017,0 10 60
20.08.2019 13:00:00 27,0 21,0 15 8 SO - 10 -
20.08.2019 12:00:00 27,0 20,0 11 6 - - 10 -
20.08.2019 11:00:00 26,4 20,3 13 7 - 1017,1 10 60
20.08.2019 10:00:00 26,0 19,0 8 4 SSO - 10 -
20.08.2019 09:00:00 26,0 20,0 8 4 S - 10 -
20.08.2019 08:00:00 25,8 19,9 4 2 - 1016,0 10 36
20.08.2019 07:00:00 - - - - - - - -
20.08.2019 06:00:00 - - - - - - - -
20.08.2019 05:00:00 - - - - - - - -
20.08.2019 04:00:00 - - - - - - - -
20.08.2019 03:00:00 - - - - - - - -
20.08.2019 02:00:00 - - - - - - - -
20.08.2019 01:00:00 - - - - - - - -
20.08.2019 00:00:00 - - - - - - - -
19.08.2019 23:00:00 - - - - - - - -
19.08.2019 22:00:00 - - - - - - - -
19.08.2019 21:00:00 - - - - - - - -
19.08.2019 20:00:00 25,8 21,0 5 3 SO 1016,0 10 0
19.08.2019 19:00:00 26,0 21,0 8 4 - - 10 -
19.08.2019 18:00:00 26,0 21,0 11 6 SO - 10 -
19.08.2019 17:00:00 26,6 20,4 13 7 SO 1015,7 10 60
19.08.2019 16:00:00 27,0 21,0 13 7 SO - 10 -
19.08.2019 15:00:00 27,0 21,0 18 10 SO - 10 -
19.08.2019 14:00:00 26,6 21,4 16 9 SO 1016,0 10 60
19.08.2019 13:00:00 26,0 22,0 15 8 SO - 10 -
19.08.2019 12:00:00 26,0 21,0 13 7 SO - 10 -
19.08.2019 11:00:00 26,6 20,4 11 6 SO 1016,1 10 60
19.08.2019 10:00:00 26,0 20,0 9 5 SO - 10 -
19.08.2019 09:00:00 26,0 19,0 4 2 - - 10 -
19.08.2019 08:00:00 24,8 19,2 8 4 - 1015,3 10 54
19.08.2019 07:00:00 - - - - - - - -
19.08.2019 06:00:00 - - - - - - - -
19.08.2019 05:00:00 - - - - - - - -
19.08.2019 04:00:00 - - - - - - - -
19.08.2019 03:00:00 - - - - - - - -
19.08.2019 02:00:00 - - - - - - - -
19.08.2019 01:00:00 - - - - - - - -
19.08.2019 00:00:00 - - - - - - - -
18.08.2019 23:00:00 - - - - - - - -
18.08.2019 22:00:00 - - - - - - - -
18.08.2019 21:00:00 - - - - - - - -
18.08.2019 20:00:00 26,2 21,2 9 5 SSO 1015,0 10 18
18.08.2019 19:00:00 26,0 21,0 13 7 SSO - 10 -
18.08.2019 18:00:00 27,0 22,0 13 7 SSO - 10 -
18.08.2019 17:00:00 27,0 21,1 11 6 SO 1014,9 10 60
18.08.2019 16:00:00 27,0 21,0 15 8 SO - 10 -
18.08.2019 15:00:00 27,0 21,0 13 7 SO - 10 -
18.08.2019 14:00:00 27,4 21,0 13 7 N 1015,9 10 60
18.08.2019 13:00:00 27,0 21,0 11 6 - - 10 -
18.08.2019 12:00:00 27,0 21,0 9 5 - - 10 -
18.08.2019 11:00:00 27,0 19,6 9 5 N 1016,0 10 60
18.08.2019 10:00:00 27,0 19,0 8 4 - - 10 -
18.08.2019 09:00:00 27,0 19,0 4 2 - - 10 -
18.08.2019 08:00:00 25,2 18,6 5 3 ENE 1015,3 10 54
18.08.2019 07:00:00 - - - - - - - -
18.08.2019 06:00:00 - - - - - - - -
18.08.2019 05:00:00 - - - - - - - -
18.08.2019 04:00:00 - - - - - - - -
18.08.2019 03:00:00 - - - - - - - -
18.08.2019 02:00:00 - - - - - - - -
18.08.2019 01:00:00 - - - - - - - -
18.08.2019 00:00:00 - - - - - - - -
17.08.2019 23:00:00 - - - - - - - -
17.08.2019 22:00:00 - - - - - - - -
17.08.2019 21:00:00 - - - - - - - -
17.08.2019 20:00:00 26,0 20,6 9 5 SSO 1014,6 20 48
17.08.2019 19:00:00 26,0 21,0 11 6 SO - 10 -
17.08.2019 18:00:00 27,0 21,0 13 7 SO - 10 -
17.08.2019 17:00:00 27,0 21,5 16 9 OSO 1014,7 20 60
17.08.2019 16:00:00 27,0 21,0 13 7 - - 10 -
17.08.2019 15:00:00 27,0 21,0 11 6 - - 10 -
17.08.2019 14:00:00 27,0 20,3 18 10 SO 1015,2 20 60
17.08.2019 13:00:00 27,0 19,0 15 8 SO - 10 -
17.08.2019 12:00:00 27,0 19,0 11 6 - - 10 -
17.08.2019 11:00:00 27,4 19,0 9 5 N 1015,8 20 60
17.08.2019 10:00:00 27,0 19,0 8 4 SSO - 10 -
17.08.2019 09:00:00 27,0 21,0 4 2 - - 10 -
17.08.2019 08:00:00 25,2 18,9 9 5 ENE 1015,3 20 60
17.08.2019 07:00:00 - - - - - - - -
17.08.2019 06:00:00 - - - - - - - -
17.08.2019 05:00:00 - - - - - - - -
17.08.2019 04:00:00 - - - - - - - -
17.08.2019 03:00:00 - - - - - - - -
17.08.2019 02:00:00 - - - - - - - -
17.08.2019 01:00:00 - - - - - - - -
17.08.2019 00:00:00 - - - - - - - -
16.08.2019 23:00:00 - - - - - - - -
16.08.2019 22:00:00 - - - - - - - -
16.08.2019 21:00:00 - - - - - - - -
16.08.2019 20:00:00 26,4 22,0 26 14 O 1012,5 10 42
16.08.2019 19:00:00 27,0 22,0 26 14 O - 10 -
16.08.2019 18:00:00 27,0 22,0 24 13 O - 10 -
16.08.2019 17:00:00 27,0 22,2 18 10 OSO 1012,9 20 60
16.08.2019 16:00:00 27,0 22,0 22 12 O - 10 -
16.08.2019 15:00:00 27,0 27,0 24 13 O - 10 -
16.08.2019 14:00:00 27,2 20,5 21 11 N 1014,2 20 60
16.08.2019 13:00:00 27,0 21,0 22 12 O - 10 -
16.08.2019 12:00:00 27,0 20,0 13 7 OSO - 10 -
16.08.2019 11:00:00 27,4 18,4 11 6 SO 1014,7 20 60
16.08.2019 10:00:00 27,0 18,0 9 5 SSO - 10 -
16.08.2019 09:00:00 26,0 18,0 5 3 SO - 10 -
16.08.2019 08:00:00 25,8 18,0 4 2 N 1014,3 20 60
16.08.2019 07:00:00 - - - - - - - -
16.08.2019 06:00:00 - - - - - - - -
16.08.2019 05:00:00 - - - - - - - -
16.08.2019 04:00:00 - - - - - - - -
16.08.2019 03:00:00 - - - - - - - -
16.08.2019 02:00:00 - - - - - - - -
16.08.2019 01:00:00 - - - - - - - -
16.08.2019 00:00:00 - - - - - - - -
15.08.2019 23:00:00 - - - - - - - -
15.08.2019 22:00:00 - - - - - - - -
15.08.2019 21:00:00 - - - - - - - -
15.08.2019 20:00:00 31,4 13,7 16 9 NNE 1011,6 10 36
15.08.2019 19:00:00 33,0 14,0 22 12 N - 10 -
15.08.2019 18:00:00 33,0 13,0 15 8 - - 10 -
15.08.2019 17:00:00 29,6 20,7 28 15 O 1010,4 10 60
15.08.2019 16:00:00 28,0 21,0 26 14 O - 10 -
15.08.2019 15:00:00 28,0 21,0 22 12 - - 10 -
15.08.2019 14:00:00 28,4 21,4 18 10 OSO 1012,0 20 60

tt = Temperatura
td = dewpoint
ff = velocità del vento
dd = direzione del vento
ppp = reduced air pressure
vv = visibility
sd = ore di luce

Stazioni seguenti

WeatherPro
AMSI
MeteoEarth